EWG84EG LGPZ-EDDS

Flight info

Callsign EWG84EG
Flight time N/A
Altitude 24000
Route MALED A14 KRK/N0437F380 UL53 OLGAT DCT LUMAR DCT AIOSA DCT SAL DCT NTL DCT NAKIT DCT PEVAL DCT MOBDO DCT SOTOV P66 KPT DCT PELOG T126 REUTL REUTL5A
Aircraft A20N/M-SDE2E3FGHIJ1RWXY/LB1

Departure

Time 2026-04-28 15:58
Airport Aktion National Airport (LGPZ)

Arrival

Time N/A
Airport Stuttgart Airport (EDDS)
Time Latitude Longitude Altitude Speed Heading
2026-04-28 15:46 38.93037 20.77258 22 ft 0 kts 340°
2026-04-28 15:52 38.93035 20.77258 22 ft 3 kts 340°
2026-04-28 15:52 38.93018 20.77267 23 ft 3 kts 340°
2026-04-28 15:52 38.92999 20.77272 23 ft 3 kts
2026-04-28 15:53 38.92981 20.77263 25 ft 3 kts 49°
2026-04-28 15:53 38.92978 20.77258 25 ft 0 kts 59°
2026-04-28 15:55 38.92982 20.77266 25 ft 2 kts 59°
2026-04-28 15:55 38.92984 20.77279 25 ft 1 kts 92°
2026-04-28 15:56 38.92982 20.77302 23 ft 6 kts 95°
2026-04-28 15:56 38.92971 20.77401 22 ft 13 kts 117°
2026-04-28 15:56 38.92887 20.77470 20 ft 19 kts 129°
2026-04-28 15:56 38.92919 20.77654 22 ft 26 kts 66°
2026-04-28 15:57 38.93001 20.77883 23 ft 28 kts 65°
2026-04-28 15:57 38.93038 20.78006 24 ft 5 kts 144°
2026-04-28 15:57 38.93012 20.77955 24 ft 20 kts 247°
2026-04-28 15:57 38.92851 20.77442 21 ft 105 kts 248°
2026-04-28 15:58 38.92495 20.76280 62 ft 170 kts 248°
2026-04-28 15:58 38.92019 20.74838 769 ft 173 kts 247°
2026-04-28 15:58 38.91845 20.73380 1874 ft 164 kts 278°
2026-04-28 15:58 38.92061 20.71856 2534 ft 189 kts 279°
2026-04-28 15:59 38.92314 20.70061 3204 ft 215 kts 279°
2026-04-28 15:59 38.92571 20.68111 4092 ft 230 kts 278°
2026-04-28 15:59 38.92836 20.65979 4780 ft 256 kts 279°
2026-04-28 15:59 38.93239 20.63692 5834 ft 266 kts 286°
2026-04-28 16:00 38.93923 20.61445 7047 ft 272 kts 296°
2026-04-28 16:00 38.94917 20.59354 8293 ft 277 kts 306°
2026-04-28 16:00 38.96195 20.57509 9488 ft 283 kts 316°
2026-04-28 16:00 38.97705 20.55836 10554 ft 293 kts 320°
2026-04-28 16:01 38.99360 20.54123 11282 ft 314 kts 321°
2026-04-28 16:01 39.01099 20.52333 12223 ft 324 kts 321°
2026-04-28 16:01 39.02875 20.50495 13270 ft 331 kts 321°
2026-04-28 16:01 39.04661 20.48637 14311 ft 336 kts 320°
2026-04-28 16:02 39.06497 20.46720 15341 ft 342 kts 320°
2026-04-28 16:02 39.10378 20.42655 17372 ft 353 kts 320°
2026-04-28 16:02 39.12298 20.40640 18298 ft 358 kts 320°
2026-04-28 16:03 39.14246 20.38594 19186 ft 363 kts 320°
2026-04-28 16:03 39.16193 20.36547 20032 ft 368 kts 320°
2026-04-28 16:03 39.18190 20.34446 20851 ft 373 kts 320°
2026-04-28 16:03 39.20210 20.32320 21646 ft 378 kts 320°
2026-04-28 16:04 39.22266 20.30160 22424 ft 383 kts 320°
2026-04-28 16:04 39.24358 20.27986 23166 ft 387 kts 321°
2026-04-28 16:04 39.26474 20.25801 23887 ft 392 kts 321°
2026-04-28 16:04 39.27889 20.24344 24340 ft 394 kts 321°
2026-04-28 16:05 39.30762 20.21388 25210 ft 400 kts 321°
2026-04-28 16:05 39.32954 20.19129 25832 ft 404 kts 321°
2026-04-28 16:05 39.35165 20.16846 26427 ft 408 kts 321°
2026-04-28 16:05 39.37236 20.14704 26965 ft 412 kts 321°
2026-04-28 16:06 39.39525 20.12335 27505 ft 415 kts 321°
2026-04-28 16:06 39.41766 20.10012 28021 ft 419 kts 321°
2026-04-28 16:06 39.44031 20.07598 28512 ft 422 kts 316°
2026-04-28 16:06 39.46149 20.04947 29003 ft 425 kts 315°
2026-04-28 16:07 39.48264 20.02239 29472 ft 429 kts 314°
2026-04-28 16:07 39.50368 19.99481 29930 ft 432 kts 314°
2026-04-28 16:07 39.54554 19.93921 31005 ft 432 kts 314°
2026-04-28 16:08 39.56647 19.91135 31588 ft 430 kts 314°
2026-04-28 16:08 39.58738 19.88354 32134 ft 429 kts 314°
2026-04-28 16:08 39.60821 19.85589 32653 ft 428 kts 314°
2026-04-28 16:09 39.64985 19.80061 33636 ft 426 kts 314°
2026-04-28 16:09 39.67028 19.77348 34089 ft 425 kts 314°
2026-04-28 16:09 39.69105 19.74587 34548 ft 425 kts 314°
2026-04-28 16:10 39.73232 19.69093 35411 ft 423 kts 314°
2026-04-28 16:10 39.75258 19.66391 35815 ft 422 kts 314°
2026-04-28 16:10 39.79364 19.60910 36568 ft 422 kts 314°
2026-04-28 16:11 39.82768 19.56358 37128 ft 422 kts 314°
2026-04-28 16:11 39.87526 19.49982 37868 ft 422 kts 314°
2026-04-28 16:12 39.90837 19.45539 38004 ft 394 kts 314°
2026-04-28 16:12 39.92697 19.43041 38003 ft 381 kts 314°
2026-04-28 16:13 39.98160 19.35687 38000 ft 375 kts 314°
2026-04-28 16:14 40.05428 19.25873 38004 ft 378 kts 313°
2026-04-28 16:14 40.09151 19.20834 37999 ft 396 kts 313°
2026-04-28 16:15 40.13069 19.15524 37998 ft 413 kts 313°
2026-04-28 16:15 40.17136 19.10002 37998 ft 429 kts 313°
2026-04-28 16:16 40.21339 19.04285 37998 ft 445 kts 313°
2026-04-28 16:16 40.23518 19.01333 37996 ft 451 kts 315°
2026-04-28 16:17 40.30807 18.93521 38000 ft 451 kts 321°
2026-04-28 16:17 40.35772 18.88456 38000 ft 451 kts 322°
2026-04-28 16:18 40.40716 18.83427 38000 ft 451 kts 322°
2026-04-28 16:18 40.45685 18.78349 38000 ft 451 kts 321°
2026-04-28 16:19 40.50606 18.73298 38000 ft 451 kts 321°
2026-04-28 16:19 40.55555 18.68205 38000 ft 451 kts 321°
2026-04-28 16:20 40.60506 18.63102 38000 ft 451 kts 321°
2026-04-28 16:20 40.64956 18.58506 38000 ft 451 kts 321°
2026-04-28 16:21 40.69063 18.54258 38000 ft 451 kts 321°
2026-04-28 16:22 40.73986 18.49158 38000 ft 451 kts 321°
2026-04-28 16:22 40.78934 18.44021 38000 ft 451 kts 321°
2026-04-28 16:23 40.83845 18.38913 38000 ft 451 kts 321°
2026-04-28 16:23 40.88791 18.33758 38000 ft 451 kts 321°
2026-04-28 16:24 40.93727 18.28604 38000 ft 451 kts 321°
2026-04-28 16:24 40.98586 18.23520 38000 ft 451 kts 321°
2026-04-28 16:26 41.00239 18.21789 38000 ft 451 kts 321°
2026-04-28 16:27 41.05137 18.16651 38000 ft 451 kts 321°
2026-04-28 16:28 41.12534 18.08872 38000 ft 451 kts 321°
2026-04-28 16:28 41.17427 18.03714 38000 ft 451 kts 321°
2026-04-28 16:29 41.24811 17.95911 38000 ft 451 kts 321°
2026-04-28 16:30 41.32165 17.88117 38000 ft 451 kts 321°
2026-04-28 16:30 41.37088 17.82887 38000 ft 451 kts 321°
2026-04-28 16:31 41.41967 17.77692 38000 ft 451 kts 321°
2026-04-28 16:31 41.46878 17.72453 38000 ft 451 kts 321°
2026-04-28 16:32 41.51784 17.67209 38000 ft 451 kts 321°
2026-04-28 16:32 41.59113 17.59355 38000 ft 451 kts 321°
2026-04-28 16:33 41.63208 17.55003 38000 ft 451 kts 322°
2026-04-28 16:33 41.69034 17.49071 38000 ft 451 kts 322°
2026-04-28 16:34 41.74062 17.44000 38000 ft 451 kts 322°
2026-04-28 16:34 41.79081 17.38909 38000 ft 451 kts 322°
2026-04-28 16:35 41.84047 17.33845 38000 ft 451 kts 322°
2026-04-28 16:35 41.89053 17.28724 38000 ft 451 kts 322°
2026-04-28 16:36 41.94034 17.23639 38000 ft 451 kts 323°
2026-04-28 16:36 41.99084 17.18599 38000 ft 451 kts 323°
2026-04-28 16:37 42.04143 17.13579 38000 ft 451 kts 323°
2026-04-28 16:38 42.11694 17.06051 38000 ft 451 kts 323°
2026-04-28 16:38 42.16755 17.00983 38000 ft 451 kts 323°
2026-04-28 16:39 42.21770 16.95949 38000 ft 451 kts 323°
2026-04-28 16:39 42.26810 16.90881 38000 ft 451 kts 323°
2026-04-28 16:40 42.31856 16.85796 38000 ft 451 kts 323°
2026-04-28 16:40 42.36891 16.80712 38000 ft 451 kts 323°
2026-04-28 16:41 42.41902 16.75642 38000 ft 451 kts 323°
2026-04-28 16:41 42.46935 16.70540 38000 ft 451 kts 323°
2026-04-28 16:42 42.51977 16.65417 38000 ft 451 kts 323°
2026-04-28 16:42 42.56970 16.60335 38000 ft 451 kts 322°
2026-04-28 16:43 42.61995 16.55209 38000 ft 451 kts 322°
2026-04-28 16:43 42.67029 16.50063 38000 ft 451 kts 322°
2026-04-28 16:44 42.72025 16.44944 38000 ft 451 kts 322°
2026-04-28 16:44 42.77048 16.39788 38000 ft 451 kts 322°
2026-04-28 16:45 42.82068 16.34625 38000 ft 451 kts 322°
2026-04-28 16:45 42.87084 16.29455 38000 ft 451 kts 322°
2026-04-28 16:46 42.92063 16.24312 38000 ft 451 kts 322°
2026-04-28 16:46 42.97073 16.19126 38000 ft 451 kts 322°
2026-04-28 16:47 43.02083 16.13929 38001 ft 451 kts 322°
2026-04-28 16:47 43.07060 16.08756 38000 ft 451 kts 322°
2026-04-28 16:48 43.12077 16.03531 38000 ft 451 kts 322°
2026-04-28 16:48 43.17058 15.98332 38000 ft 451 kts 322°
2026-04-28 16:49 43.22071 15.93088 38000 ft 451 kts 322°
2026-04-28 16:49 43.27034 15.87885 38000 ft 451 kts 322°
2026-04-28 16:50 43.32028 15.82639 38000 ft 451 kts 322°
2026-04-28 16:50 43.37018 15.77387 38000 ft 451 kts 322°
2026-04-28 16:51 43.42009 15.72122 38000 ft 451 kts 322°
2026-04-28 16:51 43.46990 15.66856 38000 ft 451 kts 322°
2026-04-28 16:52 43.51945 15.61607 38000 ft 451 kts 322°
2026-04-28 16:52 43.56924 15.56321 38000 ft 451 kts 322°
2026-04-28 16:53 43.61903 15.51023 38000 ft 451 kts 322°
2026-04-28 16:53 43.66853 15.45745 38000 ft 451 kts 322°
2026-04-28 16:54 43.71840 15.40416 38000 ft 451 kts 322°
2026-04-28 16:54 43.76780 15.35126 38000 ft 451 kts 322°
2026-04-28 16:55 43.81753 15.29789 38000 ft 451 kts 322°
2026-04-28 16:55 43.86716 15.24452 38000 ft 451 kts 322°
2026-04-28 16:56 43.91680 15.19102 38000 ft 451 kts 322°
2026-04-28 16:56 43.96540 15.13619 38001 ft 451 kts 319°
2026-04-28 16:57 44.01239 15.07861 38000 ft 450 kts 318°
2026-04-28 16:57 44.05135 15.03020 38000 ft 450 kts 318°
2026-04-28 16:58 44.10585 14.96288 38000 ft 450 kts 318°
2026-04-28 16:58 44.14519 14.91449 38000 ft 450 kts 318°
2026-04-28 16:59 44.19188 14.85704 38000 ft 450 kts 318°
2026-04-28 16:59 44.23888 14.79908 38000 ft 450 kts 318°
2026-04-28 17:00 44.28582 14.74106 38000 ft 450 kts 318°
2026-04-28 17:00 44.33281 14.68282 38000 ft 450 kts 318°
2026-04-28 17:01 44.37941 14.62494 38000 ft 450 kts 318°
2026-04-28 17:01 44.42624 14.56663 38000 ft 450 kts 318°
2026-04-28 17:02 44.47293 14.50839 38000 ft 450 kts 318°
2026-04-28 17:02 44.51968 14.44993 38000 ft 450 kts 318°
2026-04-28 17:03 44.58874 14.36028 38000 ft 450 kts 314°
2026-04-28 17:03 44.63160 14.29609 38000 ft 450 kts 312°
2026-04-28 17:04 44.69494 14.19921 38000 ft 450 kts 312°
2026-04-28 17:05 44.75901 14.10242 38000 ft 450 kts 313°
2026-04-28 17:06 44.82314 14.00565 38000 ft 450 kts 313°
2026-04-28 17:06 44.88694 13.90899 38000 ft 450 kts 312°
2026-04-28 17:07 44.92961 13.84413 38000 ft 450 kts 312°
2026-04-28 17:07 44.97220 13.77925 38000 ft 450 kts 312°
2026-04-28 17:08 45.01482 13.71416 38000 ft 450 kts 312°
2026-04-28 17:08 45.05712 13.64940 38000 ft 450 kts 312°
2026-04-28 17:09 45.09963 13.58418 38000 ft 450 kts 312°
2026-04-28 17:09 45.14182 13.51929 38000 ft 450 kts 312°
2026-04-28 17:10 45.18426 13.45383 38000 ft 450 kts 312°
2026-04-28 17:10 45.22593 13.38741 38000 ft 450 kts 311°
2026-04-28 17:11 45.26708 13.32027 38000 ft 450 kts 310°
2026-04-28 17:11 45.30835 13.25411 37999 ft 450 kts 315°
2026-04-28 17:12 45.35436 13.19346 38000 ft 450 kts 317°
2026-04-28 17:12 45.40111 13.13438 38000 ft 450 kts 318°
2026-04-28 17:13 45.44815 13.07536 38000 ft 450 kts 318°
2026-04-28 17:13 45.49515 13.01614 38000 ft 450 kts 318°
2026-04-28 17:14 45.54205 12.95673 38000 ft 450 kts 318°
2026-04-28 17:14 45.58860 12.89760 38000 ft 450 kts 318°
2026-04-28 17:15 45.63540 12.83800 38000 ft 450 kts 318°
2026-04-28 17:15 45.68224 12.77822 38000 ft 450 kts 318°
2026-04-28 17:16 45.72876 12.71870 38000 ft 450 kts 317°
2026-04-28 17:16 45.77559 12.65866 38000 ft 450 kts 317°
2026-04-28 17:17 45.82231 12.59861 38000 ft 450 kts 317°
2026-04-28 17:17 45.86901 12.53845 38000 ft 450 kts 317°
2026-04-28 17:18 45.91532 12.47867 38000 ft 450 kts 317°
2026-04-28 17:18 45.96191 12.41836 38000 ft 450 kts 317°
2026-04-28 17:19 46.00855 12.35785 38000 ft 450 kts 317°
2026-04-28 17:19 46.05483 12.29766 37999 ft 450 kts 317°
2026-04-28 17:20 46.09353 12.24724 38001 ft 450 kts 317°
2026-04-28 17:20 46.14785 12.17627 38000 ft 450 kts 317°
2026-04-28 17:21 46.19395 12.11590 38000 ft 450 kts 317°
2026-04-28 17:22 46.26364 12.02436 38000 ft 450 kts 317°
2026-04-28 17:22 46.30976 11.96360 38001 ft 450 kts 317°
2026-04-28 17:23 46.37914 11.87192 38001 ft 450 kts 317°
2026-04-28 17:23 46.42545 11.81084 37999 ft 450 kts 319°
2026-04-28 17:24 46.47403 11.75312 38000 ft 450 kts 321°
2026-04-28 17:24 46.52358 11.69729 37999 ft 450 kts 322°
2026-04-28 17:25 46.59766 11.61310 38000 ft 450 kts 321°
2026-04-28 17:26 46.64677 11.55652 38000 ft 450 kts 321°
2026-04-28 17:26 46.69589 11.49968 38000 ft 450 kts 321°
2026-04-28 17:27 46.74493 11.44279 38000 ft 450 kts 321°
2026-04-28 17:27 46.77449 11.40845 38000 ft 450 kts 321°
2026-04-28 17:28 46.78707 11.39383 38001 ft 450 kts 321°
2026-04-28 17:28 46.83473 11.33833 38000 ft 450 kts 321°
2026-04-28 17:30 46.84497 11.32640 38000 ft 450 kts 321°